Timeline UpdatesTrip UpdatesNews PostsPvt PostsTravel TipsAdmin PostsConv PostsFollowed PostsChat RequestsBlog PostsPNR Posts

Disclaimer
Search
 
 
Tue Sep 30, 2014 15:19:58 ISTHomeTrainsΣChainsAtlasPNRForumGalleryNewsFAQTripsMembersLoginFeedback
No Recent News for this Train
Other Trains in the News **new
Latest...
Temporary Stoppage at Mahadevsal Station every Sunday and Monday from 23.07.2013 to 21.08.2013 during Shravani Melaa
Tue Jul 23, 2013 (10:09AM)
⇐ Return Journey: Train# 18029

18030/Shalimar-Mumbai LTT [Kurla] Express

Time-Table HAS CHANGED.
Sep 28 (12:58PM)
Change Departure Station:
Change Arrival Station:
Post a Train Travel TipPost a Train Travel Tip **new
Post a Comment/Question/Picture/VideoPost a Comment/Question/Picture/Video
Pantry/Catering
✕ NO Pantry Car
✓ Catering Avbl
RSA - Rake Sharing
runs with 5 dedicated rake.. no RSA...
Rake/Coach Composition
LOCO-HCPV-HCPV-SLR-GS-S13-S12-S11-S10-S9-S8-S7-S6-S5-S4-S3-S2-S1-B1-A1-GS-SLR-HCPV-HCPV
Loco
HWH/SRC WAP-4
News    PNR    Forum    Time-Table    Availability    Fare Chart    Map    Arr/Dep History    Trips    Gallery    ΣChains    X/O    Timeline    
Travel Time: 17h 16m    40 halts    Distance: 894 km    Avg Speed: 51 km/hr
Type: Mail/Express
Zone: SER/South Eastern
Departs @ 15:00
Platform# 1
SMTWTFS
Kolkata Shalimar/SHM 
Arrives @ 08:16 +1 night
Platform# ???
SMTWTFS
Raj Nandgaon/RJN 

40 halts. 140 intermediate Stations between Kolkata Shalimar and Raj Nandgaon

Show ALL intermediate Stations  Show Old Time-Table

#CodeStation NameX/OArrivesAvgDepartsAvgHaltPFDay#KmSpeedElevZoneAddress
1SHMKolkata Shalimar (2)»  -15:00-110.0285mSERSHIBPUR . DIST- Howrah, West Bengal
2SRCKolkata Santragachi Junction (6)  15:11 15:10-15:12-1 2m114.7657mSERDist: Howrah - 711104, West Bengal
3ULBUluberia (6)XO  15:36 15:35-15:37-1 2m1129.55010mSERdist - howrah, West Bengal
4MCAMecheda (6)X  16:09 16:08-16:10-1 2m--155.52710mSERdist - purba Medinipur, West Bengal
5PKUPanskura Junction (6)X  16:39 16:38-16:40-1 2m--167.9489mSERPanskura, West Bengal
6KGPKharagpur Junction (10)X  17:35-17:50-15m--1112.37142mSERKharagpur, West Bengal
7JGMJhargram (4)X  18:24 18:23-18:25-1 2m--1151.48382mSERJhargram, West Bengal
8CKUChakulia (4)  18:47 18:46-18:48-1 2m--1180.787126mSERChakulia, Jharkhand
9GTSGhatsila (3)  19:11 19:09-19:12 19:11-1 2m--1211.260103mSEREast Singhbhum, Jharkhand
10GUDGaludih (4)  19:23 19:21-19:24 19:23-1 2m--1221.246120mSEREast Singhbhum, Jharkhand
11RHERakha Mines (2)  19:34 19:32-19:35 19:34-1 2m--1228.145118mSEREast Singhbhum, Jharkhand
12TATATatanagar Junction (5)X  20:05 20:00-20:10 20:05-5m--1247.456164mSER91-657-2423026, Jharkhand
13SINISini Junction (3)  20:36 20:34-20:37 20:35-1m--1274.461182mSERNational Highway 33, Jharkhand
14RKSNRajkharsawan Junction (3)  20:53 20:50-20:54 20:51-1m--1289.671189mSERSaraikela Kharswan District, Jharkhand
15CKPChakradharpur (3)X  21:11 21:08-21:16 21:13-5m11309.679235mSERChakradharpur (West Singhbhum), Jharkhand
16SWRSonua  21:31 21:29-21:32 21:30-1m--1330.664287mSERSonua, Jharkhand
17GOLGoilkera (2)X  21:44 21:42-21:45 21:43-1m--1343.457333mSERGoilkera, Jharkhand
18MOUManoharpur  22:15 22:12-22:16 22:13-1m--1370.974228mSERManoharpur, Jharkhand
19BNDMBondamunda (2)  22:42 22:40-22:43 22:41-1m--1404.221213mSERRourkela, Odisha
20ROURourkela Junction (5)X  23:03 23:00-23:13 23:10-10m21410.769198mSERRourkela, Odisha
21GPRaj Gangpur (3)  23:40 23:36-23:41 23:37-1m11440.569237mSERRaj Ganpur, Odisha
22BMBBamra (3)  00:09 00:07-00:10 00:08-1m--2475.152259mSERBamra PH : 06642-229268, Odisha
23JSGJharsuguda Junction (5)XO  00:50-00:55-5m12511.688236mSERJharsuguda, Odisha
24BRJNBrajrajnagarX  01:04 01:03-01:05-1 2m--2523.367212mSECRBrajrajnagar, Odisha
25BPHBelpahar  01:14 01:13-01:15-1 2m--2532.285 SECRBelpahar, Odisha
26RIGRaigarh (3)  01:51-01:56-5m--2583.393220mSECRRaigarh, Chhattisgarh
27KHSKharsia  02:19 02:18-02:20-1 2m--2617.277 SECRNational Highway 200, Chhattisgarh
28SKTSakti (4)  02:33 02:32-02:34-1 2m--2632.676237mSECRJanjgir-Champa, Chhattisgarh
29CPHChampa Junction (3)X  02:58-03:03-5m--2663.072264mSECRNational Highway 200 (07819-245767), Chhattisgarh
30NIANailaX  03:13 03:12-03:14-1 2m--2673.975273mSECRJanjgir, Chhattisgarh
31AKTAkaltara (4)  03:27 03:26-03:28-1 2m--2688.829284mSECRDist. Janjgir Champa, Chhattisgarh
32BSPBilaspur Junction (8)  04:25-04:45-20m32716.049271mSECRBilaspur, Chhattisgarh
33BYLBelhaO  05:04-05:05-1m--2731.680269mSECRCollege Road, Chhattisgarh
34BYTBhatapara (4)O  05:29 05:28-05:30-1 2m--2762.287270mSECRBanjari Road, Chhattisgarh
35TLDTilda (3)  05:49 05:48-05:50-1 2m12788.351 SECRBanjari Rd, Chhattisgarh
36RRaipur Junction (6)X  06:35-06:45-10m12826.570297mSECRRaipur, Chhattisgarh
37DBECDevbaloda CharodaX  07:02-07:03-1m--2846.441310mSECRBhilai, Chhattisgarh
38BIABhilai (2)X  07:09 07:08-07:10-1 2m--2849.846309mSECRBhilai, Chhattisgarh
39BPHBBhilai Power House (3)X  07:17 07:16-07:18-1 2m--2854.527312mSECRBhilai, Chhattisgarh
40BQRBhilai Nagar (2)  07:29 07:28-07:30-1 2m--2858.918298mSECRBhilai, Chhattisgarh
41DURGDurg Junction (6)X  07:45-07:55-10m--2863.487299mSECRPh: 91-788-2322059, Chhattisgarh
42RJNRaj Nandgaon (3)•  08:16-08:21-5m--2893.982313mSECRRajnandgaon, Chhattisgarh
43DGGDongargarh (2)  08:44-08:45-1m--2925.461 SECRDongargarh, Chhattisgarh
44SKSSalekasa (2)  09:21 09:20-09:22-1 2m--2961.280312mSECRRajnandgaon, Chhattisgarh
45AGNAmgaon (2)  09:34 09:33-09:35-1 2m--2975.946317mSECRGondia, Maharashtra
46GGondia Junction (7)X  10:05-10:15-10m--2998.792316mSECRGondia 441601, Maharashtra
47TROTirora (3)X  10:35 10:34-10:36-1 2m--21028.072282mSECRDist Gondia, Maharashtra
48TMRTumsar Road (5)X  10:54 10:53-10:55-1 2m--21048.367267mSECRDistt. Bhandara, Maharashtra
49BRDBhandara Road (3)  11:12 11:11-11:13-1 2m--21066.378266mSECRState Highway 252 Bhandara District, Maharashtra
50KPKamptee (3)X  11:51 11:50-11:52-1 2m--21114.233290mSECRKamptee, Maharashtra
51ITRItwari (3)O  12:12 12:11-12:13-1 2m--21124.74306mSECRNagpur, Maharashtra
52NGPNagpur Junction (8)X  13:15-13:40-25m721128.523314mCRNagpur 440001, Maharashtra
53AJNIAjni (3)  13:48-13:49-1m221131.582310mCRNagpur 440003, Maharashtra
54SNISindi (2)  14:21-14:22-1m121175.457258mCRWardha, Maharashtra
55SEGMSewagram Junction (5)X  14:53-14:54-1m121204.720279mCRWardha, Maharashtra
56WRWardha Junction (4)  15:02-15:05-3m221207.484289mCRWardha 442001, Maharashtra
57PLOPulgaon Junction (3)  15:26-15:27-1m221236.970273mCRPulgaon, Maharashtra
58DMNDhamangaon (2)  15:44-15:45-1m121256.963300mCRDhamangaon, Maharashtra
59CNDChandur (2)X  16:01-16:02-1m--21273.630331mCRAmravati Distt, Maharashtra
60BDBadnera Junction (4)  17:00-17:05-5m121302.390335mCRBadnera (Amravati) 444701, Maharashtra
61MZRMurtizapur (3)X  17:33-17:35-2m121344.174303mCRMurtajapur, Maharashtra
62AKAkola Junction (7)  18:05-18:10-5m121381.386284mCRAkola-444001, Maharashtra
63PSParas (2)  18:24-18:25-1m--21401.374282mCRAkola, Maharashtra
64SEGShegaon (2)  18:39-18:40-1m--21418.483281mCRShegaon 444203, Maharashtra
65JMJalamb Junction (3)X  18:49-18:50-1m--21430.982259mCRJalamb, Maharashtra
66NNNandura (2)X  18:59-19:00-1m--21443.170267mCRNandura, Maharashtra
67MKUMalkapur (2)X  19:24-19:25-1m121471.062252mCRMalkapur, Maharashtra
68BDWDBodwad (2)X  19:44-19:45-1m--21490.640294mCRBodwad, Maharashtra
69BSLBhusaval Junction (8)X  20:30-20:45-15m521520.960208mCRBhusaval 425201, Maharashtra
70JLJalgaon Junction (4)  21:09-21:10-1m221545.084213mCRJalgaon 425001, Maharashtra
71PCPachora Junction (4)X  21:44-21:45-1m--21592.793264mCRPachora 424201, Maharashtra
72CSNChalisgaon Junction (3)  22:14-22:15-1m--21637.687352mCRChalisgaon 424101, Maharashtra
73NGNNandgaon (3)  22:44-22:45-1m--21679.761476mCRNandgaon, Maharashtra
74MMRManmad Junction (6)  23:12 23:10-23:15-3 5m321705.177580mCRManmad 423104, Maharashtra
75LSLasalgaon (3)  23:34-23:35-1m--21729.672592mCRLasalgaon, Maharashtra
76NKNasik Road (3)X  00:19 00:15-00:20-1 5m331777.838563mCRNashik 422101, Maharashtra
77DVLDevlali (3)X  00:29-00:30-1m231783.636561mCRDist. Nashik 422401, Maharashtra
78IGPIgatpuri (4)XO  01:49 01:45-01:50-1 5m--31828.520589mCRIgatpuri 422403, Maharashtra
79KSRAKasara (4)XO  02:39 02:33-02:40 02:35-1 2m--31842.958290mCRDist. Thane 421602, Maharashtra
80KYNKalyan Junction (8)O  03:50 03:45-03:55 03:50-5m631910.36710mCRKalyan 421301, Maharashtra
81TNAThane (10)  04:09 04:08-04:10-1 2m831930.52510mCRThane (West) 400602, Maharashtra
82LTTMumbai Lokmanya Tilak Terminus (5)  04:50--331947.0-7mCRMumbai - 400089, Maharashtra
Scroll to Top
Scroll to Bottom